KOZAKOV Weather Reports


time (UTC)temp
C
wind
direction
speed
KPH
gust
KPH
rain 1hr
cm
rain 24hr
cm
rain mn
cm
humidity
%
barometer
mb
20260503055016 12 133 6.4 6.4 0.00 0.00 0.00 39
20260503054518 12 124 3.2 6.4 0.00 0.00 0.00 39
20260503054017 12 135 6.4 11.3 0.00 0.00 0.00 40
20260503053518 12 126 6.4 6.4 0.00 0.00 0.00 39
20260503053016 12 135 6.4 11.3 0.00 0.00 0.00 39
20260503052517 12 128 6.4 11.3 0.00 0.00 0.00 39
20260503052012 12 141 6.4 6.4 0.00 0.00 0.00 39
20260503051518 12 130 6.4 11.3 0.00 0.00 0.00 40
20260503051018 12 115 6.4 6.4 0.00 0.00 0.00 41
20260503050518 12 105 6.4 11.3 0.00 0.00 0.00 41
20260503050017 12 108 6.4 11.3 0.00 0.00 0.00 42
20260503045517 12 104 6.4 11.3 0.00 0.00 0.00 41
20260503045017 12 106 11.3 11.3 0.00 0.00 0.00 41
20260503044518 12 108 11.3 11.3 0.00 0.00 0.00 41
20260503044017 12 109 11.3 11.3 0.00 0.00 0.00 41
20260503043517 12 108 11.3 14.5 0.00 0.00 0.00 40
20260503043017 12 113 11.3 11.3 0.00 0.00 0.00 40
20260503042510 12 114 11.3 11.3 0.00 0.00 0.00 40
20260503042019 12 113 11.3 11.3 0.00 0.00 0.00 40
20260503041518 12 113 6.4 11.3 0.00 0.00 0.00 39
20260503041017 12 131 6.4 11.3 0.00 0.00 0.00 39
20260503040517 12 123 11.3 11.3 0.00 0.00 0.00 40
20260503040017 12 137 11.3 11.3 0.00 0.00 0.00 40
20260503035516 12 117 11.3 14.5 0.00 0.00 0.00 40
20260503035017 12 113 11.3 14.5 0.00 0.00 0.00 40
20260503034517 12 122 11.3 11.3 0.00 0.00 0.00 40
20260503034017 12 121 11.3 11.3 0.00 0.00 0.00 39
20260503033516 12 119 11.3 11.3 0.00 0.00 0.00 39
20260503033011 12 120 11.3 11.3 0.00 0.00 0.00 39
20260503032517 12 125 11.3 11.3 0.00 0.00 0.00 39
20260503032018 12 129 6.4 11.3 0.00 0.00 0.00 40
20260503031518 12 116 11.3 14.5 0.00 0.00 0.00 39
20260503031017 12 129 6.4 11.3 0.00 0.00 0.00 39
20260503030517 12 132 11.3 11.3 0.00 0.00 0.00 38
20260503030017 12 142 6.4 11.3 0.00 0.00 0.00 40
20260503025518 12 163 3.2 11.3 0.00 0.00 0.00 40
20260503025017 11 118 11.3 14.5 0.00 0.00 0.00 41
20260503024517 12 141 6.4 14.5 0.00 0.00 0.00 40
20260503024017 12 119 11.3 11.3 0.00 0.00 0.00 38
20260503023517 12 159 3.2 6.4 0.00 0.00 0.00 38
20260503023017 12 145 11.3 20.9 0.00 0.00 0.00 38
20260503022516 12 155 11.3 17.7 0.00 0.00 0.00 38
20260503022018 12 144 11.3 11.3 0.00 0.00 0.00 39
20260503021517 12 151 6.4 14.5 0.00 0.00 0.00 39
20260503021018 12 144 11.3 14.5 0.00 0.00 0.00 39
20260503020517 12 142 6.4 6.4 0.00 0.00 0.00 38
20260503020018 12 154 6.4 6.4 0.00 0.00 0.00 38
20260503015517 12 143 6.4 14.5 0.00 0.00 0.00 38
20260503015018 12 145 6.4 11.3 0.00 0.00 0.00 38
20260503014517 12 151 6.4 6.4 0.00 0.00 0.00 38
20260503014017 12 167 11.3 14.5 0.00 0.00 0.00 37
20260503013517 12 161 11.3 17.7 0.00 0.00 0.00 37
20260503013017 12 162 11.3 17.7 0.00 0.00 0.00 38
20260503012510 12 154 11.3 17.7 0.00 0.00 0.00 39
20260503012018 12 130 11.3 14.5 0.00 0.00 0.00 41
20260503011518 12 127 6.4 11.3 0.00 0.00 0.00 40
20260503011011 12 127 6.4 11.3 0.00 0.00 0.00 39
20260503010517 12 145 3.2 6.4 0.00 0.00 0.00 39
20260503010011 12 132 6.4 11.3 0.00 0.00 0.00 39
20260503005517 12 151 11.3 14.5 0.00 0.00 0.00 39
20260503005018 12 140 11.3 11.3 0.00 0.00 0.00 39
20260503004517 12 140 11.3 14.5 0.00 0.00 0.00 39
20260503004016 12 130 6.4 11.3 0.00 0.00 0.00 39
20260503003517 12 123 11.3 11.3 0.00 0.00 0.00 39
20260503003018 12 127 11.3 11.3 0.00 0.00 0.00 39
20260503002516 12 129 6.4 11.3 0.00 0.00 0.00 39
20260503002017 12 119 11.3 11.3 0.00 0.00 0.00 38
20260503001518 12 120 11.3 14.5 0.00 0.00 0.00 38
20260503001018 12 114 11.3 14.5 0.00 0.00 0.00 39
20260503000517 12 117 11.3 14.5 0.00 0.00 0.00 38
20260503000018 12 114 14.5 14.5 0.00 0.00 0.00 39
20260502235517 12 110 14.5 14.5 0.00 0.00 0.00 38
20260502235017 12 109 14.5 17.7 0.00 0.00 0.00 38
20260502234511 12 103 17.7 20.9 0.00 0.00 0.00 37
20260502234017 12 107 17.7 17.7 0.00 0.00 0.00 37
20260502233518 12 104 17.7 20.9 0.00 0.00 0.00 36
20260502233017 13 109 20.9 20.9 0.00 0.00 0.00 36
20260502232516 13 108 20.9 25.7 0.00 0.00 0.00 36
20260502232018 13 104 20.9 25.7 0.00 0.00 0.00 36
20260502231518 13 107 20.9 25.7 0.00 0.00 0.00 35
20260502231016 13 109 25.7 25.7 0.00 0.00 0.00 35
20260502230518 13 107 25.7 25.7 0.00 0.00 0.00 35
20260502230011 13 104 20.9 25.7 0.00 0.00 0.00 34
20260502225516 15 121 20.9 20.9 0.00 0.00 0.00 33
20260502225018 15 129 17.7 20.9 0.00 0.00 0.00 33
20260502224517 15 131 14.5 17.7 0.00 0.00 0.00 33
20260502224010 15 129 14.5 17.7 0.00 0.00 0.00 34
20260502223518 15 132 14.5 17.7 0.00 0.00 0.00 35
20260502223018 15 134 14.5 17.7 0.00 0.00 0.00 35
20260502222517 15 139 14.5 17.7 0.00 0.00 0.00 35
20260502222018 15 140 14.5 14.5 0.00 0.00 0.00 34
20260502221518 15 140 14.5 17.7 0.00 0.00 0.00 33
20260502221017 15 138 11.3 14.5 0.00 0.00 0.00 33
20260502220518 15 151 11.3 14.5 0.00 0.00 0.00 33
20260502220018 15 138 14.5 17.7 0.00 0.00 0.00 34
20260502215517 15 143 14.5 17.7 0.00 0.00 0.00 35
20260502215017 15 135 14.5 17.7 0.00 0.00 0.00 35
20260502214518 15 137 14.5 17.7 0.00 0.00 0.00 36
20260502214016 15 130 14.5 17.7 0.00 0.00 0.00 35
20260502213517 15 128 11.3 14.5 0.00 0.00 0.00 34
20260502213017 15 134 17.7 17.7 0.00 0.00 0.00 33
20260502212517 15 117 17.7 20.9 0.00 0.00 0.00 31
20260502212017 15 125 14.5 17.7 0.00 0.00 0.00 31
20260502211516 15 126 11.3 17.7 0.00 0.00 0.00 31
20260502211018 15 124 14.5 17.7 0.00 0.00 0.00 30
20260502210517 15 124 11.3 14.5 0.00 0.00 0.00 30
20260502210018 15 129 11.3 14.5 0.00 0.00 0.00 29
20260502205517 16 133 11.3 14.5 0.00 0.00 0.00 29
20260502205018 16 132 11.3 14.5 0.00 0.00 0.00 28
20260502204511 16 127 11.3 11.3 0.00 0.00 0.00 28
20260502204017 16 143 6.4 11.3 0.00 0.00 0.00 28
20260502203518 16 140 11.3 14.5 0.00 0.00 0.00 28
20260502203018 16 143 14.5 14.5 0.00 0.00 0.00 28
20260502202516 16 143 11.3 14.5 0.00 0.00 0.00 28
20260502202018 16 133 11.3 11.3 0.00 0.00 0.00 28
20260502201518 16 128 11.3 14.5 0.00 0.00 0.00 28
20260502201016 16 126 11.3 11.3 0.00 0.00 0.00 28
20260502200516 16 124 11.3 14.5 0.00 0.00 0.00 29
20260502200017 16 132 11.3 14.5 0.00 0.00 0.00 29
20260502195517 16 127 11.3 11.3 0.00 0.00 0.00 28
20260502195016 16 133 11.3 11.3 0.00 0.00 0.00 28
20260502194518 16 126 11.3 14.5 0.00 0.00 0.00 27
20260502194017 16 125 14.5 14.5 0.00 0.00 0.00 27
20260502193518 16 122 14.5 14.5 0.00 0.00 0.00 27
20260502193017 16 124 11.3 14.5 0.00 0.00 0.00 27
20260502192518 16 127 11.3 14.5 0.00 0.00 0.00 27
20260502192017 16 131 11.3 11.3 0.00 0.00 0.00 27
20260502191518 16 140 11.3 11.3 0.00 0.00 0.00 27
20260502191017 16 143 11.3 11.3 0.00 0.00 0.00 26
20260502190517 16 144 11.3 11.3 0.00 0.00 0.00 26
20260502190019 16 148 11.3 11.3 0.00 0.00 0.00 26
20260502185509 16 147 11.3 11.3 0.00 0.00 0.00 27
20260502185018 16 151 11.3 11.3 0.00 0.00 0.00 27
20260502184517 16 156 11.3 11.3 0.00 0.00 0.00 27
20260502184016 16 164 6.4 11.3 0.00 0.00 0.00 27
20260502183517 16 164 11.3 11.3 0.00 0.00 0.00 27
20260502182510 16 163 11.3 11.3 0.00 0.00 0.00 27
20260502182018 16 169 11.3 11.3 0.00 0.00 0.00 27
20260502181517 16 173 6.4 11.3 0.00 0.00 0.00 27
20260502181017 16 180 6.4 11.3 0.00 0.00 0.00 26
20260502180517 16 180 6.4 6.4 0.00 0.00 0.00 26
20260502170518 17 176 6.4 11.3 0.00 0.00 0.00 26
20260502164017 17 214 6.4 11.3 0.00 0.00 0.00 26
20260502163517 17 184 3.2 6.4 0.00 0.00 0.00 26
20260502163018 17 177 11.3 11.3 0.00 0.00 0.00 26
20260502162516 17 165 6.4 14.5 0.00 0.00 0.00 26
20260502162017 17 180 6.4 11.3 0.00 0.00 0.00 26
20260502161518 17 215 6.4 11.3 0.00 0.00 0.00 26
20260502161016 17 182 3.2 3.2 0.00 0.00 0.00 26
20260502160518 17 167 6.4 11.3 0.00 0.00 0.00 25
20260502152018 17 225 6.4 14.5 0.00 0.00 0.00 25
20260502151517 17 182 6.4 14.5 0.00 0.00 0.00 24
20260502151017 17 189 6.4 14.5 0.00 0.00 0.00 24
20260502150517 17 207 6.4 11.3 0.00 0.00 0.00 24
20260502130518 17 226 3.2 3.2 0.00 0.00 0.00 27
20260502123517 17 155 6.4 11.3 0.00 0.00 0.00 28
20260502123018 17 215 3.2 6.4 0.00 0.00 0.00 28
20260502122517 17 129 0.0 3.2 0.00 0.00 0.00 28
20260502122020 16 176 6.4 11.3 0.00 0.00 0.00 29
20260502121518 16 155 6.4 6.4 0.00 0.00 0.00 30
20260502121018 16 173 11.3 11.3 0.00 0.00 0.00 30
20260502120518 17 212 6.4 11.3 0.00 0.00 0.00 30
20260502115517 17 213 6.4 11.3 0.00 0.00 0.00 31
20260502115018 16 137 11.3 14.5 0.00 0.00 0.00 32
20260502114518 16 161 11.3 14.5 0.00 0.00 0.00 32
20260502114017 17 212 3.2 11.3 0.00 0.00 0.00 32
20260502113517 17 230 3.2 6.4 0.00 0.00 0.00 32
20260502113018 16 264 3.2 6.4 0.00 0.00 0.00 32
20260502112517 16 182 3.2 6.4 0.00 0.00 0.00 34
20260502112019 16 192 0.0 3.2 0.00 0.00 0.00 33
20260502111517 15 133 14.5 17.7 0.00 0.00 0.00 34
20260502111017 16 216 6.4 11.3 0.00 0.00 0.00 34
20260502110518 16 164 6.4 14.5 0.00 0.00 0.00 34
20260502110018 16 263 6.4 11.3 0.00 0.00 0.00 35
20260502105517 16 200 6.4 11.3 0.00 0.00 0.00 35
20260502105018 15 184 6.4 11.3 0.00 0.00 0.00 35
20260502104517 16 158 6.4 6.4 0.00 0.00 0.00 35
20260502104018 16 158 11.3 14.5 0.00 0.00 0.00 35
20260502103517 16 207 11.3 11.3 0.00 0.00 0.00 35
20260502103018 16 279 3.2 6.4 0.00 0.00 0.00 35
20260502102518 16 186 3.2 6.4 0.00 0.00 0.00 35
20260502102020 16 196 6.4 11.3 0.00 0.00 0.00 34
20260502101518 16 203 3.2 6.4 0.00 0.00 0.00 35
20260502101018 15 165 6.4 11.3 0.00 0.00 0.00 35
20260502100517 16 236 3.2 3.2 0.00 0.00 0.00 35
20260502091517 15 195 6.4 14.5 0.00 0.00 0.00 40
20260502091018 15 201 3.2 6.4 0.00 0.00 0.00 41
20260502090517 15 226 3.2 6.4 0.00 0.00 0.00 41
20260502071517 15 184 0.0 0.0 0.00 0.00 0.00 46
20260502071017 13 186 0.0 3.2 0.00 0.00 0.00 46
20260502070517 13 190 0.0 3.2 0.00 0.00 0.00 45
20260502070017 13 190 0.0 0.0 0.00 0.00 0.00 46
20260502065518 13 190 0.0 3.2 0.00 0.00 0.00 45
20260502065017 12 182 3.2 3.2 0.00 0.00 0.00 45
20260502064517 13 168 3.2 3.2 0.00 0.00 0.00 43
20260502064017 13 168 0.0 3.2 0.00 0.00 0.00 43
20260502063017 13 161 3.2 3.2 0.00 0.00 0.00 43
20260502062021 13 161 0.0 3.2 0.00 0.00 0.00 43
20260502061517 13 161 3.2 3.2 0.00 0.00 0.00 44
20260502061017 13 161 0.0 0.0 0.00 0.00 0.00 44